Location: Barletta
(41.3170°N, 16.2830°E)
Time: 02:21:37
(UTC+02:00)

ISS - Pass Details

Date: 14 May 2021
Orbit: 417 x 422 km, 51.6° (Epoch: 14 June)

Event Time Altitude Azimuth Distance (km) Brightness Sun altitude
Rises 21:11:49 0° 207° (SSW) 2,346 -0.1 -11.3°
Reaches altitude 10° 21:14:05 10° 195° (SSW) 1,488 -1.2 -11.6°
Maximum altitude 21:16:58 27° 135° (SE) 838 -2.8 -12.1°
Drops below altitude 10° 21:19:52 10° 75° (ENE) 1,499 -1.3 -12.5°
Enters shadow 21:21:22 - 66° (ENE) 2,058 -0.5 -12.7°
